This is the latest recevied weather packets stored in our database for station/object JQ1YUX-13. If no packets are shown the sender has not sent any weather packets the latest 1 day(s).
| Time | Temp. | Humidity | Pressure | Rain* | Wind** | Luminosity | Snow |
|---|---|---|---|---|---|---|---|
| 1777984053 | 17.22° C | 65% | 1022.1 hPa | 0 mm | 1.34 m/s, 180° | - | - |
| 1777983151 | 17.22° C | 65% | 1022 hPa | 0 mm | 2.24 m/s, 188° | - | - |
| 1777982252 | 17.22° C | 64% | 1022.1 hPa | 0 mm | 2.68 m/s, 192° | - | - |
| 1777981359 | 17.22° C | 63% | 1022.1 hPa | 0 mm | 2.68 m/s, 182° | - | - |
| 1777980451 | 17.22° C | 65% | 1022 hPa | 0 mm | 2.24 m/s, 181° | - | - |
| 1777979552 | 17.22° C | 64% | 1021.9 hPa | 0 mm | 0.89 m/s, 201° | - | - |
| 1777978652 | 17.22° C | 65% | 1021.7 hPa | 0 mm | 2.24 m/s, 194° | - | - |
| 1777977751 | 17.22° C | 65% | 1021.7 hPa | 0 mm | 2.68 m/s, 174° | - | - |
| 1777976852 | 17.22° C | 64% | 1021.5 hPa | 0 mm | 2.68 m/s, 184° | - | - |
| 1777975951 | 17.78° C | 63% | 1021.4 hPa | 0 mm | 2.68 m/s, 166° | - | - |
| 1777975052 | 17.78° C | 60% | 1021.1 hPa | 0 mm | 2.24 m/s, 186° | - | - |
| 1777974152 | 17.78° C | 58% | 1021 hPa | 0 mm | 3.13 m/s, 187° | - | - |
| 1777973251 | 18.33° C | 57% | 1020.9 hPa | 0 mm | 3.13 m/s, 172° | - | - |
| 1777972352 | 18.89° C | 56% | 1020.6 hPa | 0 mm | 2.24 m/s, 175° | - | - |
| 1777971453 | 18.89° C | 57% | 1020.5 hPa | 0 mm | 3.13 m/s, 174° | - | - |
| 1777970551 | 19.44° C | 57% | 1020.2 hPa | 0 mm | 2.68 m/s, 206° | - | - |
| 1777969652 | 20° C | 56% | 1020.2 hPa | 0 mm | 1.34 m/s, 173° | - | - |
| 1777968752 | 20.56° C | 56% | 1020.1 hPa | 0 mm | 3.13 m/s, 182° | - | - |
| 1777967851 | 20.56° C | 54% | 1020 hPa | 0 mm | 3.13 m/s, 211° | - | - |
| 1777966952 | 21.67° C | 49% | 1019.7 hPa | 0 mm | 2.68 m/s, 204° | - | - |
| 1777966052 | 21.67° C | 48% | 1019.5 hPa | 0 mm | 2.24 m/s, 222° | - | - |
| 1777965151 | 22.22° C | 45% | 1019.3 hPa | 0 mm | 2.68 m/s, 205° | - | - |
* Rain latest hour (hover to see other rain measurements)
** Current wind speed in m/s (hover to see current wind gust speed)